Time,TemperatureF,DewpointF,PressureIn,WindDirection,WindDirectionDegrees,WindSpeedMPH,WindSpeedGustMPH,Humidity,HourlyPrecipIn,Conditions,Clouds,dailyrainin,SoftwareType,DateUTC
2013-05-02 00:00:00,67.3,62.0,29.47,ESE,111,5.0,13.0,83,0.00,,SKC,0.00,VWS V14.01,2013-05-02 05:00:00,
2013-05-02 00:04:00,67.3,62.0,29.47,East,98,7.0,11.0,83,0.00,,SKC,0.00,VWS V14.01,2013-05-02 05:04:00,
2013-05-02 00:10:00,67.1,62.1,29.47,East,95,3.0,11.0,84,0.00,,SKC,0.00,VWS V14.01,2013-05-02 05:10:00,
2013-05-02 00:16:00,67.0,62.0,29.47,NE,49,2.0,11.0,84,0.00,,SKC,0.00,VWS V14.01,2013-05-02 05:16:00,
2013-05-02 00:22:00,66.8,62.2,29.42,NE,55,5.0,11.0,85,0.00,,SKC,0.00,VWS V14.01,2013-05-02 05:22:00,
2013-05-02 00:28:00,66.7,62.0,29.44,SE,140,4.0,11.0,85,0.00,,SKC,0.00,VWS V14.01,2013-05-02 05:28:00,
2013-05-02 00:30:00,66.7,62.0,29.44,ENE,78,0.0,11.0,85,0.00,,SKC,0.00,VWS V14.01,2013-05-02 05:30:00,
2013-05-02 00:34:00,66.6,62.0,29.71,East,85,3.0,7.0,85,0.00,,SKC,0.00,VWS V14.01,2013-05-02 05:34:00,
2013-05-02 00:40:00,66.5,61.9,29.71,ESE,116,3.0,7.0,85,0.00,,SKC,0.00,VWS V14.01,2013-05-02 05:40:00,
2013-05-02 00:46:00,66.4,61.8,29.44,NNE,28,1.0,7.0,85,0.00,,SKC,0.00,VWS V14.01,2013-05-02 05:46:00,
2013-05-02 00:52:00,66.3,61.7,29.44,ENE,74,0.0,7.0,85,0.00,,SKC,0.00,VWS V14.01,2013-05-02 05:52:00,
2013-05-02 00:58:00,66.2,61.9,29.59,NE,40,0.0,7.0,86,0.00,,SKC,0.00,VWS V14.01,2013-05-02 05:58:00,
2013-05-02 01:00:00,66.1,61.5,29.56,NE,40,0.0,7.0,85,0.00,,SKC,0.00,VWS V14.01,2013-05-02 06:00:00,
2013-05-02 01:04:00,66.1,61.5,29.56,NE,40,0.0,1.0,85,0.00,,SKC,0.00,VWS V14.01,2013-05-02 06:04:00,
2013-05-02 01:10:00,66.0,61.7,30.08,NE,51,1.0,2.0,86,0.00,,SKC,0.00,VWS V14.01,2013-05-02 06:10:00,
2013-05-02 01:16:00,65.9,61.6,30.01,NE,51,0.0,2.0,86,0.00,,SKC,0.00,VWS V14.01,2013-05-02 06:16:00,
2013-05-02 01:22:00,65.9,61.6,30.01,NE,51,0.0,2.0,86,0.00,,SKC,0.00,VWS V14.01,2013-05-02 06:22:00,
2013-05-02 01:28:00,65.8,61.5,29.99,NNE,28,0.0,2.0,86,0.00,,SKC,0.00,VWS V14.01,2013-05-02 06:28:00,
2013-05-02 01:30:00,65.7,61.4,29.95,NNE,18,2.0,2.0,86,0.00,,SKC,0.00,VWS V14.01,2013-05-02 06:30:00,
2013-05-02 01:34:00,65.7,61.4,29.71,NNE,18,0.0,2.0,86,0.00,,SKC,0.00,VWS V14.01,2013-05-02 06:34:00,
2013-05-02 01:40:00,65.6,61.3,29.54,North,360,0.0,2.0,86,0.00,,SKC,0.00,VWS V14.01,2013-05-02 06:40:00,
2013-05-02 01:46:00,65.5,61.2,29.57,North,360,0.0,2.0,86,0.00,,SKC,0.00,VWS V14.01,2013-05-02 06:46:00,
2013-05-02 01:52:00,65.4,61.4,29.54,North,360,0.0,2.0,87,0.00,,SKC,0.00,VWS V14.01,2013-05-02 06:52:00,
2013-05-02 01:58:00,65.2,61.2,29.53,North,360,0.0,2.0,87,0.00,,SKC,0.00,VWS V14.01,2013-05-02 06:58:00,
2013-05-02 02:00:00,65.2,61.2,29.54,NW,318,0.0,3.0,87,0.00,,SKC,0.00,VWS V14.01,2013-05-02 07:00:00,
2013-05-02 02:04:00,65.2,61.6,29.54,NW,319,0.0,0.0,88,0.00,,SKC,0.00,VWS V14.01,2013-05-02 07:04:00,
2013-05-02 02:10:00,65.2,61.6,29.54,NW,312,1.0,6.0,88,0.00,,SKC,0.00,VWS V14.01,2013-05-02 07:10:00,
2013-05-02 02:16:00,65.3,61.7,29.54,NNE,30,1.0,6.0,88,0.00,,SKC,0.00,VWS V14.01,2013-05-02 07:16:00,
2013-05-02 02:22:00,65.3,61.7,29.96,NW,311,1.0,6.0,88,0.00,,SKC,0.00,VWS V14.01,2013-05-02 07:22:00,
2013-05-02 02:28:00,65.3,61.7,29.98,NW,309,2.0,6.0,88,0.00,,SKC,0.00,VWS V14.01,2013-05-02 07:28:00,
2013-05-02 02:30:00,65.3,61.7,29.86,WNW,302,0.0,6.0,88,0.00,,SKC,0.00,VWS V14.01,2013-05-02 07:30:00,
2013-05-02 02:34:00,65.3,61.7,29.86,NW,319,1.0,1.0,88,0.00,,SKC,0.00,VWS V14.01,2013-05-02 07:34:00,
2013-05-02 02:40:00,65.4,61.8,29.86,WNW,288,2.0,3.0,88,0.00,,SKC,0.00,VWS V14.01,2013-05-02 07:40:00,
2013-05-02 02:46:00,65.5,61.9,29.72,NW,317,3.0,3.0,88,0.00,,SKC,0.00,VWS V14.01,2013-05-02 07:46:00,
2013-05-02 02:52:00,65.7,61.7,29.79,NE,53,1.0,4.0,87,0.00,,SKC,0.00,VWS V14.01,2013-05-02 07:52:00,
2013-05-02 02:58:00,65.8,61.8,29.61,NW,311,1.0,4.0,87,0.00,,SKC,0.00,VWS V14.01,2013-05-02 07:58:00,
2013-05-02 03:00:00,65.9,61.9,29.61,NW,324,0.0,4.0,87,0.00,,SKC,0.00,VWS V14.01,2013-05-02 08:00:00,
2013-05-02 03:04:00,66.0,62.0,29.72,WNW,300,1.0,3.0,87,0.00,,SKC,0.00,VWS V14.01,2013-05-02 08:04:00,
2013-05-02 03:10:00,66.1,62.1,29.72,East,98,3.0,4.0,87,0.00,,SKC,0.00,VWS V14.01,2013-05-02 08:10:00,
2013-05-02 03:16:00,66.1,62.1,29.96,NW,325,1.0,4.0,87,0.00,,SKC,0.00,VWS V14.01,2013-05-02 08:16:00,
2013-05-02 03:22:00,66.2,62.2,30.00,East,83,3.0,4.0,87,0.00,,SKC,0.00,VWS V14.01,2013-05-02 08:22:00,
2013-05-02 03:28:00,66.2,62.2,29.95,NW,307,1.0,4.0,87,0.00,,SKC,0.00,VWS V14.01,2013-05-02 08:28:00,
2013-05-02 03:30:00,66.2,62.2,29.98,NW,325,1.0,4.0,87,0.00,,SKC,0.00,VWS V14.01,2013-05-02 08:30:00,
2013-05-02 03:34:00,66.2,62.2,29.98,NNE,21,1.0,4.0,87,0.00,,SKC,0.00,VWS V14.01,2013-05-02 08:34:00,
2013-05-02 03:40:00,66.2,61.9,29.94,NW,321,1.0,4.0,86,0.00,,SKC,0.00,VWS V14.01,2013-05-02 08:40:00,
2013-05-02 03:46:00,66.1,61.8,29.98,NNE,31,3.0,4.0,86,0.00,,SKC,0.00,VWS V14.01,2013-05-02 08:46:00,
2013-05-02 03:52:00,66.1,61.8,29.90,NW,321,3.0,7.0,86,0.00,,SKC,0.00,VWS V14.01,2013-05-02 08:52:00,
2013-05-02 03:58:00,66.1,61.8,29.90,NNW,338,1.0,7.0,86,0.00,,SKC,0.00,VWS V14.01,2013-05-02 08:58:00,
2013-05-02 04:00:00,66.1,61.8,29.74,NW,320,0.0,7.0,86,0.00,,SKC,0.00,VWS V14.01,2013-05-02 09:00:00,
2013-05-02 04:04:00,66.0,61.7,30.00,NW,323,1.0,5.0,86,0.00,,SKC,0.00,VWS V14.01,2013-05-02 09:04:00,
2013-05-02 04:10:00,66.0,61.7,30.00,East,101,1.0,5.0,86,0.00,,SKC,0.00,VWS V14.01,2013-05-02 09:10:00,
2013-05-02 04:16:00,66.0,61.7,29.66,WSW,243,2.0,5.0,86,0.00,,SKC,0.00,VWS V14.01,2013-05-02 09:16:00,
2013-05-02 04:22:00,66.0,61.7,29.66,NW,315,0.0,5.0,86,0.00,,SKC,0.00,VWS V14.01,2013-05-02 09:22:00,
2013-05-02 04:28:00,66.1,61.8,29.66,WNW,301,1.0,5.0,86,0.00,,SKC,0.00,VWS V14.01,2013-05-02 09:28:00,
2013-05-02 04:30:00,66.1,61.8,29.51,East,95,1.0,5.0,86,0.00,,SKC,0.00,VWS V14.01,2013-05-02 09:30:00,
2013-05-02 04:34:00,66.1,61.8,29.59,NW,309,2.0,3.0,86,0.00,,SKC,0.00,VWS V14.01,2013-05-02 09:34:00,
2013-05-02 04:40:00,66.1,61.8,29.59,West,267,1.0,4.0,86,0.00,,SKC,0.00,VWS V14.01,2013-05-02 09:40:00,
2013-05-02 04:46:00,66.1,61.8,29.59,WNW,288,3.0,5.0,86,0.00,,SKC,0.00,VWS V14.01,2013-05-02 09:46:00,
2013-05-02 04:52:00,66.1,61.8,29.55,ENE,62,0.0,5.0,86,0.00,,SKC,0.00,VWS V14.01,2013-05-02 09:52:00,
2013-05-02 04:58:00,66.0,61.7,29.55,NW,315,2.0,8.0,86,0.00,,SKC,0.00,VWS V14.01,2013-05-02 09:58:00,
2013-05-02 05:00:00,65.9,61.9,29.53,NW,311,1.0,8.0,87,0.00,,SKC,0.00,VWS V14.01,2013-05-02 10:00:00,
2013-05-02 05:04:00,65.9,61.9,29.57,WNW,303,1.0,6.0,87,0.00,,SKC,0.00,VWS V14.01,2013-05-02 10:04:00,
2013-05-02 05:10:00,65.6,61.6,29.57,ENE,63,2.0,6.0,87,0.01,,SKC,0.01,VWS V14.01,2013-05-02 10:10:00,
2013-05-02 05:16:00,64.8,60.5,29.60,SW,221,4.0,8.0,86,0.02,,SKC,0.02,VWS V14.01,2013-05-02 10:16:00,
2013-05-02 05:22:00,63.2,59.3,29.71,SE,146,3.0,10.0,87,0.02,,SKC,0.02,VWS V14.01,2013-05-02 10:22:00,
2013-05-02 05:28:00,61.8,58.2,29.62,NNW,331,4.0,10.0,88,0.02,,SKC,0.02,VWS V14.01,2013-05-02 10:28:00,
2013-05-02 05:30:00,61.3,57.7,29.62,ESE,114,4.0,10.0,88,0.02,,SKC,0.02,VWS V14.01,2013-05-02 10:30:00,
2013-05-02 05:35:00,60.7,57.1,29.62,East,96,2.0,9.0,88,0.02,,SKC,0.02,VWS V14.01,2013-05-02 10:35:00,
2013-05-02 05:41:00,59.8,56.6,29.62,South,180,3.0,9.0,89,0.03,,SKC,0.03,VWS V14.01,2013-05-02 10:41:00,
2013-05-02 05:47:00,58.2,55.0,29.62,West,270,3.0,9.0,89,0.03,,SKC,0.03,VWS V14.01,2013-05-02 10:47:00,
2013-05-02 05:53:00,57.1,53.9,29.62,NNW,341,10.0,10.0,89,0.03,,SKC,0.03,VWS V14.01,2013-05-02 10:53:00,
2013-05-02 05:59:00,56.3,53.4,29.62,East,89,6.0,10.0,90,0.03,,SKC,0.03,VWS V14.01,2013-05-02 10:59:00,
2013-05-02 06:00:00,56.1,53.2,29.62,NNW,347,6.0,10.0,90,0.03,,SKC,0.03,VWS V14.01,2013-05-02 11:00:00,
2013-05-02 06:05:00,55.7,52.8,29.62,NNE,15,4.0,8.0,90,0.03,,SKC,0.03,VWS V14.01,2013-05-02 11:05:00,
2013-05-02 06:11:00,55.5,52.6,29.52,SE,145,4.0,8.0,90,0.03,,SKC,0.03,VWS V14.01,2013-05-02 11:11:00,
2013-05-02 06:17:00,55.1,52.2,29.52,North,9,6.0,8.0,90,0.03,,SKC,0.03,VWS V14.01,2013-05-02 11:17:00,
2013-05-02 06:23:00,54.7,51.8,29.52,NW,319,3.0,8.0,90,0.03,,SKC,0.03,VWS V14.01,2013-05-02 11:23:00,
2013-05-02 06:29:00,54.3,51.4,29.83,WSW,242,2.0,8.0,90,0.03,,SKC,0.03,VWS V14.01,2013-05-02 11:29:00,
2013-05-02 06:30:00,54.2,51.3,29.83,West,259,2.0,8.0,90,0.03,,SKC,0.03,VWS V14.01,2013-05-02 11:30:00,
2013-05-02 06:35:00,54.1,51.2,29.94,ESE,110,1.0,9.0,90,0.01,,SKC,0.03,VWS V14.01,2013-05-02 11:35:00,
2013-05-02 06:41:00,54.0,51.4,29.94,North,355,9.0,9.0,91,0.01,,SKC,0.03,VWS V14.01,2013-05-02 11:41:00,
2013-05-02 06:47:00,53.8,50.9,30.11,NNW,342,2.0,9.0,90,0.01,,SKC,0.03,VWS V14.01,2013-05-02 11:47:00,
2013-05-02 06:53:00,53.7,50.8,29.89,East,98,3.0,9.0,90,0.01,,SKC,0.03,VWS V14.01,2013-05-02 11:53:00,
2013-05-02 06:59:00,53.6,50.4,29.89,SE,130,2.0,9.0,89,0.01,,SKC,0.03,VWS V14.01,2013-05-02 11:59:00,
2013-05-02 07:00:00,53.6,50.4,29.89,NNW,333,5.0,9.0,89,0.01,,SKC,0.03,VWS V14.01,2013-05-02 12:00:00,
2013-05-02 07:05:00,53.4,49.9,30.00,ESE,105,4.0,12.0,88,0.00,,SKC,0.03,VWS V14.01,2013-05-02 12:05:00,
2013-05-02 07:11:00,53.1,49.7,29.61,SE,138,3.0,12.0,88,0.00,,SKC,0.03,VWS V14.01,2013-05-02 12:11:00,
2013-05-02 07:17:00,52.9,49.5,29.62,NW,320,2.0,12.0,88,0.00,,SKC,0.03,VWS V14.01,2013-05-02 12:17:00,
2013-05-02 07:23:00,52.7,49.0,29.61,NW,324,2.0,12.0,87,0.00,,SKC,0.03,VWS V14.01,2013-05-02 12:23:00,
2013-05-02 07:29:00,52.6,48.8,29.61,ENE,73,3.0,12.0,87,0.00,,SKC,0.03,VWS V14.01,2013-05-02 12:29:00,
2013-05-02 07:30:00,52.4,48.7,29.61,NE,35,4.0,12.0,87,0.00,,SKC,0.03,VWS V14.01,2013-05-02 12:30:00,
2013-05-02 07:35:00,52.4,48.7,29.65,NNW,329,4.0,5.0,87,0.00,,SKC,0.03,VWS V14.01,2013-05-02 12:35:00,
2013-05-02 07:54:00,51.1,48.9,29.64,NNW,328,4.0,10.0,92,0.01,,SKC,0.04,VWS V14.01,2013-05-02 12:54:00,
2013-05-02 08:00:00,51.0,48.2,29.81,SE,132,2.0,10.0,90,0.01,,SKC,0.04,VWS V14.01,2013-05-02 13:00:00,
2013-05-02 08:06:00,50.9,48.1,29.86,East,92,3.0,8.0,90,0.01,,SKC,0.04,VWS V14.01,2013-05-02 13:06:00,
2013-05-02 08:12:00,50.8,48.3,29.85,NNW,342,4.0,8.0,91,0.01,,SKC,0.04,VWS V14.01,2013-05-02 13:12:00,
2013-05-02 08:18:00,50.7,48.2,29.84,ESE,105,1.0,9.0,91,0.01,,SKC,0.04,VWS V14.01,2013-05-02 13:18:00,
2013-05-02 08:24:00,50.8,48.0,29.84,East,97,3.0,9.0,90,0.01,,SKC,0.04,VWS V14.01,2013-05-02 13:24:00,
2013-05-02 08:30:00,51.0,48.2,29.84,North,360,3.0,9.0,90,0.01,,SKC,0.04,VWS V14.01,2013-05-02 13:30:00,
2013-05-02 08:37:00,51.2,48.4,29.74,East,98,5.0,7.0,90,0.01,,SKC,0.04,VWS V14.01,2013-05-02 13:37:00,
2013-05-02 08:43:00,51.4,48.6,29.67,NE,45,2.0,7.0,90,0.01,,SKC,0.04,VWS V14.01,2013-05-02 13:43:00,
2013-05-02 08:49:00,51.5,48.4,29.66,East,95,5.0,7.0,89,0.01,,SKC,0.04,VWS V14.01,2013-05-02 13:49:00,
2013-05-02 08:55:00,51.5,48.1,29.68,ESE,107,3.0,12.0,88,0.01,,SKC,0.04,VWS V14.01,2013-05-02 13:55:00,
2013-05-02 09:00:00,51.0,48.2,29.81,NNW,336,2.0,10.0,90,0.01,,SKC,0.04,VWS V14.01,2013-05-02 14:00:00,
2013-05-02 09:01:00,51.7,48.3,29.67,East,85,5.0,12.0,88,0.01,,SKC,0.04,VWS V14.01,2013-05-02 14:01:00,
2013-05-02 09:07:00,51.8,48.1,29.70,WSW,258,2.0,6.0,87,0.00,,SKC,0.04,VWS V14.01,2013-05-02 14:07:00,
2013-05-02 09:13:00,51.7,47.7,29.71,South,175,5.0,16.0,86,0.00,,SKC,0.04,VWS V14.01,2013-05-02 14:13:00,
2013-05-02 09:19:00,51.7,47.7,29.66,SE,140,2.0,16.0,86,0.00,,SKC,0.04,VWS V14.01,2013-05-02 14:19:00,
2013-05-02 09:25:00,51.8,47.4,29.73,NE,38,3.0,16.0,85,0.00,,SKC,0.04,VWS V14.01,2013-05-02 14:25:00,
2013-05-02 09:30:00,51.0,48.2,29.84,NW,315,2.0,9.0,90,0.01,,SKC,0.04,VWS V14.01,2013-05-02 14:30:00,
2013-05-02 09:31:00,52.0,47.6,29.71,ESE,123,5.0,16.0,85,0.00,,SKC,0.04,VWS V14.01,2013-05-02 14:31:00,
2013-05-02 09:37:00,52.1,47.7,29.73,East,84,2.0,7.0,85,0.00,,SKC,0.04,VWS V14.01,2013-05-02 14:37:00,
2013-05-02 09:43:00,52.2,47.5,29.70,NW,306,9.0,13.0,84,0.00,,SKC,0.04,VWS V14.01,2013-05-02 14:43:00,
2013-05-02 09:49:00,52.3,47.6,29.89,NNE,21,5.0,13.0,84,0.00,,SKC,0.04,VWS V14.01,2013-05-02 14:49:00,
2013-05-02 09:55:00,52.5,47.8,29.86,South,180,4.0,13.0,84,0.00,,SKC,0.04,VWS V14.01,2013-05-02 14:55:00,
2013-05-02 10:00:00,51.7,48.3,29.67,East,98,1.0,12.0,88,0.01,,SKC,0.04,VWS V14.01,2013-05-02 15:00:00,
2013-05-02 10:01:00,52.7,47.7,29.86,WNW,290,6.0,13.0,83,0.00,,SKC,0.04,VWS V14.01,2013-05-02 15:01:00,
2013-05-02 10:07:00,53.0,48.0,29.86,West,275,3.0,6.0,83,0.00,,SKC,0.04,VWS V14.01,2013-05-02 15:07:00,
2013-05-02 10:13:00,53.4,48.4,29.86,WNW,289,0.0,10.0,83,0.00,,SKC,0.04,VWS V14.01,2013-05-02 15:13:00,
2013-05-02 10:19:00,53.8,48.4,30.08,East,86,3.0,10.0,82,0.00,,SKC,0.04,VWS V14.01,2013-05-02 15:19:00,
2013-05-02 10:25:00,53.9,47.9,30.19,North,360,7.0,10.0,80,0.00,,SKC,0.04,VWS V14.01,2013-05-02 15:25:00,
2013-05-02 10:30:00,52.1,47.7,29.71,NE,43,3.0,16.0,85,0.00,,SKC,0.04,VWS V14.01,2013-05-02 15:30:00,
2013-05-02 10:31:00,54.0,48.0,30.18,NW,310,4.0,11.0,80,0.00,,SKC,0.04,VWS V14.01,2013-05-02 15:31:00,
2013-05-02 10:37:00,54.3,47.9,30.16,East,99,1.0,7.0,79,0.00,,SKC,0.04,VWS V14.01,2013-05-02 15:37:00,
2013-05-02 10:43:00,54.3,47.6,29.99,ENE,59,4.0,7.0,78,0.00,,SKC,0.04,VWS V14.01,2013-05-02 15:43:00,
2013-05-02 10:49:00,54.2,47.5,29.99,SE,134,3.0,9.0,78,0.00,,SKC,0.04,VWS V14.01,2013-05-02 15:49:00,
2013-05-02 10:55:00,54.3,47.6,29.84,North,355,3.0,9.0,78,0.00,,SKC,0.04,VWS V14.01,2013-05-02 15:55:00,
2013-05-02 11:00:00,52.7,47.7,29.86,North,355,6.0,13.0,83,0.00,,SKC,0.04,VWS V14.01,2013-05-02 16:00:00,
2013-05-02 11:01:00,54.1,47.1,29.95,SE,132,2.0,11.0,77,0.00,,SKC,0.04,VWS V14.01,2013-05-02 16:01:00,
2013-05-02 11:07:00,54.1,47.1,29.80,NNE,28,9.0,11.0,77,0.00,,SKC,0.04,VWS V14.01,2013-05-02 16:07:00,
2013-05-02 11:13:00,54.0,47.0,29.82,NE,55,3.0,11.0,77,0.00,,SKC,0.04,VWS V14.01,2013-05-02 16:13:00,
2013-05-02 11:19:00,54.1,47.1,30.22,NE,44,3.0,11.0,77,0.00,,SKC,0.04,VWS V14.01,2013-05-02 16:19:00,
2013-05-02 11:25:00,54.3,47.6,30.16,West,281,3.0,11.0,78,0.00,,SKC,0.04,VWS V14.01,2013-05-02 16:25:00,
2013-05-02 11:30:00,54.0,48.0,30.18,WSW,255,4.0,11.0,80,0.00,,SKC,0.04,VWS V14.01,2013-05-02 16:30:00,
2013-05-02 11:31:00,54.3,46.9,30.16,NNW,340,3.0,11.0,76,0.00,,SKC,0.04,VWS V14.01,2013-05-02 16:31:00,
2013-05-02 11:37:00,53.9,46.5,29.97,North,5,5.0,11.0,76,0.00,,SKC,0.04,VWS V14.01,2013-05-02 16:37:00,
2013-05-02 11:43:00,53.7,46.7,29.97,WNW,298,3.0,11.0,77,0.00,,SKC,0.04,VWS V14.01,2013-05-02 16:43:00,
2013-05-02 11:49:00,53.7,46.3,30.23,ENE,68,3.0,11.0,76,0.00,,SKC,0.04,VWS V14.01,2013-05-02 16:49:00,
2013-05-02 11:55:00,53.5,46.1,30.23,WNW,287,3.0,12.0,76,0.00,,SKC,0.04,VWS V14.01,2013-05-02 16:55:00,
2013-05-02 12:00:00,54.1,47.1,29.95,ENE,58,3.0,11.0,77,0.00,,SKC,0.04,VWS V14.01,2013-05-02 17:00:00,
2013-05-02 12:01:00,53.4,46.0,30.10,South,188,2.0,12.0,76,0.00,,SKC,0.04,VWS V14.01,2013-05-02 17:01:00,
2013-05-02 12:07:00,53.2,45.8,29.98,NE,34,3.0,8.0,76,0.00,,SKC,0.04,VWS V14.01,2013-05-02 17:07:00,
2013-05-02 12:13:00,53.1,45.8,29.90,SSW,200,3.0,10.0,76,0.00,,SKC,0.04,VWS V14.01,2013-05-02 17:13:00,
2013-05-02 12:19:00,52.8,45.1,30.25,ESE,109,5.0,10.0,75,0.00,,SKC,0.04,VWS V14.01,2013-05-02 17:19:00,
2013-05-02 12:25:00,52.7,45.4,30.25,WNW,302,1.0,10.0,76,0.00,,SKC,0.04,VWS V14.01,2013-05-02 17:25:00,
2013-05-02 12:30:00,54.2,46.8,30.16,WSW,240,4.0,11.0,76,0.00,,SKC,0.04,VWS V14.01,2013-05-02 17:30:00,
2013-05-02 12:31:00,52.8,45.8,30.25,SW,236,3.0,12.0,77,0.00,,SKC,0.04,VWS V14.01,2013-05-02 17:31:00,
2013-05-02 12:37:00,53.1,46.1,30.25,NW,326,7.0,10.0,77,0.00,,SKC,0.04,VWS V14.01,2013-05-02 17:37:00,
2013-05-02 12:43:00,53.1,45.8,30.25,NW,306,2.0,10.0,76,0.00,,SKC,0.04,VWS V14.01,2013-05-02 17:43:00,
2013-05-02 12:49:00,53.2,45.5,30.25,ESE,119,2.0,10.0,75,0.00,,SKC,0.04,VWS V14.01,2013-05-02 17:49:00,
2013-05-02 12:55:00,53.3,45.9,30.25,ENE,72,3.0,10.0,76,0.00,,SKC,0.04,VWS V14.01,2013-05-02 17:55:00,
2013-05-02 13:00:00,53.4,46.0,30.10,NW,317,5.0,12.0,76,0.00,,SKC,0.04,VWS V14.01,2013-05-02 18:00:00,
2013-05-02 13:01:00,53.3,45.6,30.25,NNW,331,7.0,10.0,75,0.00,,SKC,0.04,VWS V14.01,2013-05-02 18:01:00,
2013-05-02 13:07:00,53.3,45.6,30.21,East,84,2.0,9.0,75,0.00,,SKC,0.04,VWS V14.01,2013-05-02 18:07:00,
2013-05-02 13:13:00,53.5,45.8,30.25,NW,321,8.0,9.0,75,0.00,,SKC,0.04,VWS V14.01,2013-05-02 18:13:00,
2013-05-02 13:19:00,53.6,45.9,30.21,East,98,3.0,9.0,75,0.00,,SKC,0.04,VWS V14.01,2013-05-02 18:19:00,
2013-05-02 13:25:00,53.8,45.7,30.19,South,173,2.0,9.0,74,0.00,,SKC,0.04,VWS V14.01,2013-05-02 18:25:00,
2013-05-02 13:30:00,52.8,45.8,30.25,SW,236,3.0,12.0,77,0.00,,SKC,0.04,VWS V14.01,2013-05-02 18:30:00,
2013-05-02 13:31:00,53.9,45.8,30.17,NE,38,4.0,11.0,74,0.00,,SKC,0.04,VWS V14.01,2013-05-02 18:31:00,
2013-05-02 13:37:00,54.0,46.3,30.18,ESE,119,2.0,9.0,75,0.00,,SKC,0.04,VWS V14.01,2013-05-02 18:37:00,
2013-05-02 13:43:00,54.2,46.1,30.18,WNW,299,6.0,10.0,74,0.00,,SKC,0.04,VWS V14.01,2013-05-02 18:43:00,
2013-05-02 13:49:00,54.1,46.0,30.18,SSW,206,1.0,10.0,74,0.00,,SKC,0.04,VWS V14.01,2013-05-02 18:49:00,
2013-05-02 13:55:00,53.9,45.5,30.00,ENE,73,2.0,11.0,73,0.00,,SKC,0.04,VWS V14.01,2013-05-02 18:55:00,
2013-05-02 14:00:00,53.3,45.6,30.25,NNW,331,7.0,10.0,75,0.00,,SKC,0.04,VWS V14.01,2013-05-02 19:00:00,
2013-05-02 14:01:00,53.7,45.3,30.00,SSE,151,3.0,11.0,73,0.00,,SKC,0.04,VWS V14.01,2013-05-02 19:01:00,
2013-05-02 14:07:00,53.8,45.7,30.01,ESE,119,2.0,10.0,74,0.00,,SKC,0.04,VWS V14.01,2013-05-02 19:07:00,
2013-05-02 14:13:00,53.8,45.7,29.97,North,5,1.0,10.0,74,0.00,,SKC,0.04,VWS V14.01,2013-05-02 19:13:00,
2013-05-02 14:19:00,53.7,45.6,29.97,WSW,240,2.0,10.0,74,0.00,,SKC,0.04,VWS V14.01,2013-05-02 19:19:00,
2013-05-02 14:25:00,53.5,45.1,30.06,South,169,4.0,10.0,73,0.00,,SKC,0.04,VWS V14.01,2013-05-02 19:25:00,
2013-05-02 14:30:00,53.9,45.8,30.17,NE,38,4.0,11.0,74,0.00,,SKC,0.04,VWS V14.01,2013-05-02 19:30:00,
2013-05-02 14:31:00,53.5,45.4,29.87,NW,311,3.0,10.0,74,0.00,,SKC,0.04,VWS V14.01,2013-05-02 19:31:00,
2013-05-02 14:37:00,53.6,45.5,30.26,NNE,25,2.0,11.0,74,0.00,,SKC,0.04,VWS V14.01,2013-05-02 19:37:00,
2013-05-02 14:43:00,53.6,45.5,30.26,North,360,2.0,11.0,74,0.00,,SKC,0.04,VWS V14.01,2013-05-02 19:43:00,
2013-05-02 14:49:00,53.5,45.4,30.22,NE,37,3.0,11.0,74,0.00,,SKC,0.04,VWS V14.01,2013-05-02 19:49:00,
2013-05-02 14:55:00,53.1,45.0,30.00,SSE,148,4.0,11.0,74,0.00,,SKC,0.04,VWS V14.01,2013-05-02 19:55:00,
2013-05-02 15:00:00,53.7,45.3,30.00,SSE,151,3.0,11.0,73,0.00,,SKC,0.04,VWS V14.01,2013-05-02 20:00:00,
2013-05-02 15:01:00,52.9,45.2,30.13,SE,140,3.0,11.0,75,0.00,,SKC,0.04,VWS V14.01,2013-05-02 20:01:00,
2013-05-02 15:07:00,53.0,45.0,30.26,NNE,29,3.0,8.0,74,0.00,,SKC,0.04,VWS V14.01,2013-05-02 20:07:00,
2013-05-02 15:13:00,52.5,44.5,30.26,SW,214,4.0,12.0,74,0.00,,SKC,0.04,VWS V14.01,2013-05-02 20:13:00,
2013-05-02 15:19:00,52.1,44.1,30.27,North,9,1.0,12.0,74,0.00,,SKC,0.04,VWS V14.01,2013-05-02 20:19:00,
2013-05-02 15:25:00,51.8,43.8,30.27,West,265,5.0,12.0,74,0.00,,SKC,0.04,VWS V14.01,2013-05-02 20:25:00,
2013-05-02 15:30:00,53.5,45.4,29.87,NW,311,3.0,10.0,74,0.00,,SKC,0.04,VWS V14.01,2013-05-02 20:30:00,
2013-05-02 15:31:00,51.5,43.5,30.27,NNW,339,7.0,12.0,74,0.00,,SKC,0.04,VWS V14.01,2013-05-02 20:31:00,
2013-05-02 15:37:00,51.2,43.2,30.27,South,190,5.0,13.0,74,0.00,,SKC,0.04,VWS V14.01,2013-05-02 20:37:00,
2013-05-02 15:43:00,51.0,43.4,30.27,WNW,290,8.0,15.0,75,0.00,,SKC,0.04,VWS V14.01,2013-05-02 20:43:00,
2013-05-02 15:49:00,50.6,42.6,30.27,East,88,10.0,15.0,74,0.00,,SKC,0.04,VWS V14.01,2013-05-02 20:49:00,
2013-05-02 15:55:00,50.4,42.4,30.27,SE,129,4.0,15.0,74,0.00,,SKC,0.04,VWS V14.01,2013-05-02 20:55:00,
2013-05-02 16:00:00,52.9,45.2,30.13,SE,140,3.0,11.0,75,0.00,,SKC,0.04,VWS V14.01,2013-05-02 21:00:00,
2013-05-02 16:01:00,50.0,42.4,30.27,NW,326,7.0,15.0,75,0.00,,SKC,0.04,VWS V14.01,2013-05-02 21:01:00,
2013-05-02 16:07:00,49.9,42.3,30.27,SSW,200,7.0,10.0,75,0.00,,SKC,0.04,VWS V14.01,2013-05-02 21:07:00,
2013-05-02 16:13:00,49.8,42.5,30.26,NW,312,2.0,10.0,76,0.00,,SKC,0.04,VWS V14.01,2013-05-02 21:13:00,
2013-05-02 16:19:00,49.7,42.8,30.28,NNW,344,7.0,10.0,77,0.00,,SKC,0.04,VWS V14.01,2013-05-02 21:19:00,
2013-05-02 16:25:00,49.3,42.4,30.26,North,11,2.0,10.0,77,0.00,,SKC,0.04,VWS V14.01,2013-05-02 21:25:00,
2013-05-02 16:30:00,51.5,43.5,30.27,NNW,339,7.0,12.0,74,0.00,,SKC,0.04,VWS V14.01,2013-05-02 21:30:00,
2013-05-02 16:31:00,49.2,42.3,30.28,NW,306,1.0,12.0,77,0.00,,SKC,0.04,VWS V14.01,2013-05-02 21:31:00,
2013-05-02 16:38:00,49.2,42.6,29.87,NNW,332,12.0,12.0,78,0.00,,SKC,0.04,VWS V14.01,2013-05-02 21:38:00,
2013-05-02 16:44:00,49.0,42.8,30.13,SE,144,3.0,15.0,79,0.00,,SKC,0.04,VWS V14.01,2013-05-02 21:44:00,
2013-05-02 16:50:00,48.7,42.8,30.13,South,182,3.0,15.0,80,0.00,,SKC,0.04,VWS V14.01,2013-05-02 21:50:00,
2013-05-02 16:56:00,48.4,42.5,30.13,East,84,5.0,15.0,80,0.00,,SKC,0.04,VWS V14.01,2013-05-02 21:56:00,
2013-05-02 17:00:00,50.0,42.4,30.27,NW,326,7.0,15.0,75,0.00,,SKC,0.04,VWS V14.01,2013-05-02 22:00:00,
2013-05-02 17:01:00,48.2,42.7,29.72,South,172,5.0,15.0,81,0.00,,SKC,0.04,VWS V14.01,2013-05-02 22:01:00,
2013-05-02 17:08:00,48.0,42.5,29.68,NE,52,2.0,10.0,81,0.00,,SKC,0.04,VWS V14.01,2013-05-02 22:08:00,
2013-05-02 17:14:00,48.1,42.5,29.68,NNE,14,3.0,10.0,81,0.00,,SKC,0.04,VWS V14.01,2013-05-02 22:14:00,
2013-05-02 17:20:00,47.8,42.3,29.52,ESE,108,3.0,10.0,81,0.00,,SKC,0.04,VWS V14.01,2013-05-02 22:20:00,
2013-05-02 17:26:00,47.6,42.4,29.51,ESE,111,3.0,10.0,82,0.00,,SKC,0.04,VWS V14.01,2013-05-02 22:26:00,
2013-05-02 17:30:00,49.2,42.3,30.28,NW,306,1.0,12.0,77,0.00,,SKC,0.04,VWS V14.01,2013-05-02 22:30:00,
2013-05-02 17:31:00,47.4,42.5,29.51,SE,129,3.0,10.0,83,0.00,,SKC,0.04,VWS V14.01,2013-05-02 22:31:00,
2013-05-02 17:38:00,47.3,42.4,29.51,ESE,103,4.0,9.0,83,0.00,,SKC,0.04,VWS V14.01,2013-05-02 22:38:00,
2013-05-02 17:44:00,47.2,42.3,29.29,ESE,112,3.0,9.0,83,0.00,,SKC,0.04,VWS V14.01,2013-05-02 22:44:00,
2013-05-02 17:50:00,47.2,42.3,29.48,East,97,2.0,9.0,83,0.00,,SKC,0.04,VWS V14.01,2013-05-02 22:50:00,
2013-05-02 17:56:00,47.0,42.1,29.48,NE,36,5.0,9.0,83,0.00,,SKC,0.04,VWS V14.01,2013-05-02 22:56:00,
2013-05-02 18:00:00,48.2,42.7,29.72,South,172,5.0,15.0,81,0.00,,SKC,0.04,VWS V14.01,2013-05-02 23:00:00,
2013-05-02 18:01:00,46.9,42.0,29.48,West,270,3.0,10.0,83,0.00,,SKC,0.04,VWS V14.01,2013-05-02 23:01:00,
2013-05-02 18:08:00,46.8,41.9,29.39,ESE,105,3.0,13.0,83,0.00,,SKC,0.04,VWS V14.01,2013-05-02 23:08:00,
2013-05-02 18:14:00,46.7,41.8,29.39,SE,144,2.0,13.0,83,0.00,,SKC,0.04,VWS V14.01,2013-05-02 23:14:00,
2013-05-02 18:20:00,46.7,42.1,29.90,SE,144,4.0,13.0,84,0.00,,SKC,0.04,VWS V14.01,2013-05-02 23:20:00,
2013-05-02 18:26:00,46.6,42.3,29.97,NNW,333,8.0,13.0,85,0.00,,SKC,0.04,VWS V14.01,2013-05-02 23:26:00,
2013-05-02 18:30:00,47.4,42.5,29.51,SE,129,3.0,10.0,83,0.00,,SKC,0.04,VWS V14.01,2013-05-02 23:30:00,
2013-05-02 18:31:00,46.3,42.3,30.29,North,351,3.0,13.0,86,0.00,,SKC,0.04,VWS V14.01,2013-05-02 23:31:00,
2013-05-02 18:38:00,46.0,42.0,30.29,NW,325,6.0,7.0,86,0.00,,SKC,0.04,VWS V14.01,2013-05-02 23:38:00,
2013-05-02 18:44:00,45.7,41.8,30.30,ESE,105,3.0,8.0,86,0.00,,SKC,0.04,VWS V14.01,2013-05-02 23:44:00,
2013-05-02 18:50:00,45.5,41.9,30.26,SW,220,3.0,13.0,87,0.00,,SKC,0.04,VWS V14.01,2013-05-02 23:50:00,
2013-05-02 18:56:00,45.3,42.0,30.26,NNW,340,2.0,13.0,88,0.00,,SKC,0.04,VWS V14.01,2013-05-02 23:56:00,
2013-05-02 19:00:00,46.9,42.0,29.48,West,270,3.0,10.0,83,0.00,,SKC,0.04,VWS V14.01,2013-05-03 00:00:00,
2013-05-02 19:01:00,45.1,41.8,30.09,South,172,4.0,13.0,88,0.00,,SKC,0.04,VWS V14.01,2013-05-03 00:01:00,
2013-05-02 19:08:00,44.9,41.9,30.31,North,11,2.0,10.0,89,0.00,,SKC,0.04,VWS V14.01,2013-05-03 00:08:00,
2013-05-02 19:14:00,44.7,41.7,30.31,NNW,327,3.0,10.0,89,0.01,,SKC,0.05,VWS V14.01,2013-05-03 00:14:00,
2013-05-02 19:20:00,44.3,41.3,30.31,East,80,7.0,10.0,89,0.01,,SKC,0.05,VWS V14.01,2013-05-03 00:20:00,
2013-05-02 19:26:00,44.1,40.8,30.31,NE,56,1.0,10.0,88,0.01,,SKC,0.05,VWS V14.01,2013-05-03 00:26:00,
2013-05-02 19:30:00,46.3,42.3,30.29,North,351,3.0,13.0,86,0.00,,SKC,0.04,VWS V14.01,2013-05-03 00:30:00,
2013-05-02 19:31:00,44.2,40.6,30.32,West,271,9.0,10.0,87,0.01,,SKC,0.05,VWS V14.01,2013-05-03 00:31:00,
2013-05-02 19:38:00,44.2,40.6,30.32,SSW,207,5.0,11.0,87,0.01,,SKC,0.05,VWS V14.01,2013-05-03 00:38:00,
2013-05-02 19:44:00,44.3,40.1,30.32,NW,326,2.0,11.0,85,0.01,,SKC,0.05,VWS V14.01,2013-05-03 00:44:00,
2013-05-02 19:50:00,44.3,40.1,30.32,NE,55,4.0,16.0,85,0.01,,SKC,0.05,VWS V14.01,2013-05-03 00:50:00,
2013-05-02 19:56:00,44.5,40.3,30.32,NNE,31,6.0,16.0,85,0.01,,SKC,0.05,VWS V14.01,2013-05-03 00:56:00,
2013-05-02 20:00:00,45.1,41.8,30.09,South,172,4.0,13.0,88,0.00,,SKC,0.04,VWS V14.01,2013-05-03 01:00:00,
2013-05-02 20:01:00,44.4,39.9,30.32,WNW,292,4.0,16.0,84,0.01,,SKC,0.05,VWS V14.01,2013-05-03 01:01:00,
2013-05-02 20:08:00,44.3,40.1,30.33,ENE,64,2.0,7.0,85,0.01,,SKC,0.05,VWS V14.01,2013-05-03 01:08:00,
2013-05-02 20:14:00,44.2,39.7,30.33,SE,128,6.0,11.0,84,0.01,,SKC,0.05,VWS V14.01,2013-05-03 01:14:00,
2013-05-02 20:20:00,44.2,40.0,30.33,NNE,20,2.0,12.0,85,0.01,,SKC,0.05,VWS V14.01,2013-05-03 01:20:00,
2013-05-02 20:26:00,44.1,39.9,30.33,SE,136,4.0,12.0,85,0.01,,SKC,0.05,VWS V14.01,2013-05-03 01:26:00,
2013-05-02 20:30:00,44.2,40.6,30.32,West,271,9.0,10.0,87,0.01,,SKC,0.05,VWS V14.01,2013-05-03 01:30:00,
2013-05-02 20:31:00,44.0,39.8,30.33,ENE,63,3.0,12.0,85,0.01,,SKC,0.05,VWS V14.01,2013-05-03 01:31:00,
2013-05-02 20:38:00,44.0,39.8,30.34,East,81,1.0,11.0,85,0.00,,SKC,0.05,VWS V14.01,2013-05-03 01:38:00,
2013-05-02 20:44:00,44.1,39.9,30.34,ENE,76,5.0,11.0,85,0.00,,SKC,0.05,VWS V14.01,2013-05-03 01:44:00,
2013-05-02 20:50:00,44.2,40.0,30.34,NW,309,3.0,11.0,85,0.00,,SKC,0.05,VWS V14.01,2013-05-03 01:50:00,
2013-05-02 20:56:00,44.0,39.8,30.34,ENE,75,7.0,11.0,85,0.00,,SKC,0.05,VWS V14.01,2013-05-03 01:56:00,
2013-05-02 21:00:00,44.4,39.9,30.32,WNW,292,4.0,16.0,84,0.01,,SKC,0.05,VWS V14.01,2013-05-03 02:00:00,
2013-05-02 21:02:00,43.8,39.6,30.34,WSW,250,4.0,10.0,85,0.00,,SKC,0.05,VWS V14.01,2013-05-03 02:02:00,
2013-05-02 21:08:00,43.8,39.9,30.34,NNW,335,5.0,10.0,86,0.00,,SKC,0.05,VWS V14.01,2013-05-03 02:08:00,
2013-05-02 21:14:00,43.8,39.9,30.35,North,9,6.0,11.0,86,0.00,,SKC,0.05,VWS V14.01,2013-05-03 02:14:00,
2013-05-02 21:20:00,43.8,39.6,30.35,NNE,15,5.0,11.0,85,0.00,,SKC,0.05,VWS V14.01,2013-05-03 02:20:00,
2013-05-02 21:26:00,43.9,39.7,30.34,SSE,156,5.0,11.0,85,0.00,,SKC,0.05,VWS V14.01,2013-05-03 02:26:00,
2013-05-02 21:30:00,44.0,39.8,30.33,ENE,63,3.0,12.0,85,0.01,,SKC,0.05,VWS V14.01,2013-05-03 02:30:00,
2013-05-02 21:32:00,43.9,39.4,30.34,WNW,292,3.0,8.0,84,0.00,,SKC,0.05,VWS V14.01,2013-05-03 02:32:00,
2013-05-02 21:38:00,44.0,39.5,30.35,West,281,6.0,11.0,84,0.00,,SKC,0.05,VWS V14.01,2013-05-03 02:38:00,
2013-05-02 21:44:00,44.2,39.4,30.35,East,99,9.0,11.0,83,0.00,,SKC,0.05,VWS V14.01,2013-05-03 02:44:00,
2013-05-02 21:50:00,44.2,39.1,30.35,SSE,152,8.0,17.0,82,0.00,,SKC,0.05,VWS V14.01,2013-05-03 02:50:00,
2013-05-02 21:56:00,44.3,39.2,30.35,NNE,26,5.0,17.0,82,0.00,,SKC,0.05,VWS V14.01,2013-05-03 02:56:00,
2013-05-02 22:00:00,43.9,39.7,30.34,NNW,342,6.0,11.0,85,0.00,,SKC,0.05,VWS V14.01,2013-05-03 03:00:00,
2013-05-02 22:02:00,44.3,39.2,30.35,North,360,3.0,12.0,82,0.00,,SKC,0.05,VWS V14.01,2013-05-03 03:02:00,
2013-05-02 22:08:00,44.3,39.2,30.35,NW,321,1.0,12.0,82,0.00,,SKC,0.05,VWS V14.01,2013-05-03 03:08:00,
2013-05-02 22:14:00,44.3,39.2,30.36,West,279,4.0,12.0,82,0.00,,SKC,0.05,VWS V14.01,2013-05-03 03:14:00,
2013-05-02 22:20:00,44.3,39.5,30.35,West,275,6.0,12.0,83,0.00,,SKC,0.05,VWS V14.01,2013-05-03 03:20:00,
2013-05-02 22:26:00,44.4,39.3,30.35,SE,130,2.0,12.0,82,0.00,,SKC,0.05,VWS V14.01,2013-05-03 03:26:00,
2013-05-02 22:30:00,43.9,39.7,30.34,NW,324,8.0,11.0,85,0.00,,SKC,0.05,VWS V14.01,2013-05-03 03:30:00,
2013-05-02 22:32:00,44.4,39.3,30.35,North,5,6.0,6.0,82,0.00,,SKC,0.05,VWS V14.01,2013-05-03 03:32:00,
2013-05-02 22:38:00,44.6,39.1,30.35,WNW,289,4.0,15.0,81,0.00,,SKC,0.05,VWS V14.01,2013-05-03 03:38:00,
2013-05-02 22:44:00,44.7,39.2,30.35,WSW,250,2.0,15.0,81,0.00,,SKC,0.05,VWS V14.01,2013-05-03 03:44:00,
2013-05-02 22:50:00,44.8,39.3,30.35,NNE,22,7.0,15.0,81,0.00,,SKC,0.05,VWS V14.01,2013-05-03 03:50:00,
2013-05-02 22:56:00,44.9,39.4,30.35,SE,144,1.0,15.0,81,0.00,,SKC,0.05,VWS V14.01,2013-05-03 03:56:00,
2013-05-02 23:00:00,44.3,39.2,30.35,SE,134,4.0,17.0,82,0.00,,SKC,0.05,VWS V14.01,2013-05-03 04:00:00,
2013-05-02 23:01:00,44.8,39.7,30.35,WNW,302,4.0,15.0,82,0.00,,SKC,0.05,VWS V14.01,2013-05-03 04:01:00,
2013-05-02 23:02:00,44.8,39.7,30.35,NNE,22,5.0,7.0,82,0.00,,SKC,0.05,VWS V14.01,2013-05-03 04:02:00,
2013-05-02 23:08:00,44.7,39.2,30.35,East,80,5.0,7.0,81,0.00,,SKC,0.05,VWS V14.01,2013-05-03 04:08:00,
2013-05-02 23:14:00,44.7,39.2,30.34,ENE,67,3.0,9.0,81,0.00,,SKC,0.05,VWS V14.01,2013-05-03 04:14:00,
2013-05-02 23:17:00,44.7,38.9,30.34,NNW,335,4.0,9.0,80,0.00,,SKC,0.05,VWS V14.01,2013-05-03 04:17:00,
2013-05-02 23:23:00,44.8,39.0,30.34,NW,311,6.0,13.0,80,0.00,,SKC,0.05,VWS V14.01,2013-05-03 04:23:00,
2013-05-02 23:29:00,44.8,38.0,30.34,North,355,8.0,13.0,77,0.00,,SKC,0.05,VWS V14.01,2013-05-03 04:29:00,
2013-05-02 23:30:00,44.4,39.3,30.35,South,169,5.0,12.0,82,0.00,,SKC,0.05,VWS V14.01,2013-05-03 04:30:00,
2013-05-02 23:32:00,44.8,37.7,30.34,NW,319,6.0,14.0,76,0.00,,SKC,0.05,VWS V14.01,2013-05-03 04:32:00,
2013-05-02 23:38:00,44.9,37.1,30.33,SSE,149,3.0,18.0,74,0.00,,SKC,0.05,VWS V14.01,2013-05-03 04:38:00,
2013-05-02 23:44:00,44.9,37.5,30.34,NE,38,7.0,18.0,75,0.00,,SKC,0.05,VWS V14.01,2013-05-03 04:44:00,
2013-05-02 23:50:00,44.9,37.5,30.34,NNW,342,3.0,18.0,75,0.00,,SKC,0.05,VWS V14.01,2013-05-03 04:50:00,
2013-05-02 23:56:00,44.9,37.1,30.33,ENE,78,4.0,18.0,74,0.00,,SKC,0.05,VWS V14.01,2013-05-03 04:56:00,